Time,TemperatureF,DewpointF,PressureIn,WindDirection,WindDirectionDegrees,WindSpeedMPH,WindSpeedGustMPH,Humidity,HourlyPrecipIn,Conditions,Clouds,dailyrainin,SoftwareType,DateUTC
2013-03-29 00:00:00,65.5,56.2,30.13,South,175,5.0,5.0,72,0.00,,,0.00,Wunderground v.1.15,2013-03-29 05:00:00,
2013-03-29 00:06:00,65.4,56.1,30.13,SSE,165,5.0,13.0,72,0.00,,,0.00,Wunderground v.1.15,2013-03-29 05:06:00,
2013-03-29 00:12:00,65.4,56.1,30.14,SW,218,5.0,9.0,72,0.00,,,0.00,Wunderground v.1.15,2013-03-29 05:12:00,
2013-03-29 00:17:00,65.4,56.5,30.14,SE,146,6.0,9.0,73,0.00,,,0.00,Wunderground v.1.15,2013-03-29 05:17:00,
2013-03-29 00:22:00,65.3,56.4,30.13,SSE,168,6.0,7.0,73,0.00,,,0.00,Wunderground v.1.15,2013-03-29 05:22:00,
2013-03-29 00:28:00,65.2,56.3,30.13,South,175,4.0,7.0,73,0.00,,,0.00,Wunderground v.1.15,2013-03-29 05:28:00,
2013-03-29 00:34:00,65.0,56.1,30.13,South,178,4.0,7.0,73,0.00,,,0.00,Wunderground v.1.15,2013-03-29 05:34:00,
2013-03-29 00:39:00,65.0,56.1,30.13,SSW,204,5.0,7.0,73,0.00,,,0.00,Wunderground v.1.15,2013-03-29 05:39:00,
2013-03-29 00:45:00,64.8,56.3,30.13,SSW,192,4.0,10.0,74,0.00,,,0.00,Wunderground v.1.15,2013-03-29 05:45:00,
2013-03-29 00:50:00,64.8,56.3,30.13,SSW,196,5.0,5.0,74,0.00,,,0.00,Wunderground v.1.15,2013-03-29 05:50:00,
2013-03-29 00:56:00,64.7,56.2,30.13,SSW,199,5.0,10.0,74,0.00,,,0.00,Wunderground v.1.15,2013-03-29 05:56:00,
2013-03-29 01:02:00,64.5,56.0,30.13,SSE,164,5.0,5.0,74,0.00,,,0.00,Wunderground v.1.15,2013-03-29 06:02:00,
2013-03-29 01:08:00,64.5,56.0,30.13,SE,131,8.0,12.0,75,0.00,,,0.00,weatherlink.com 1.10,2013-03-29 06:08:00,
2013-03-29 01:13:00,64.5,56.4,30.13,SSE,167,6.0,10.0,75,0.00,,,0.00,Wunderground v.1.15,2013-03-29 06:13:00,
2013-03-29 01:20:00,64.5,56.4,30.13,South,187,5.0,5.0,75,0.00,,,0.00,Wunderground v.1.15,2013-03-29 06:20:00,
2013-03-29 01:26:00,64.5,56.4,30.14,SSE,168,4.0,8.0,75,0.00,,,0.00,Wunderground v.1.15,2013-03-29 06:26:00,
2013-03-29 01:31:00,64.5,56.4,30.14,South,171,4.0,10.0,75,0.00,,,0.00,Wunderground v.1.15,2013-03-29 06:31:00,
2013-03-29 01:37:00,64.4,56.0,30.14,South,173,4.0,14.0,75,0.00,,,0.00,weatherlink.com 1.10,2013-03-29 06:37:00,
2013-03-29 01:44:00,64.4,56.3,30.14,South,184,4.0,8.0,75,0.00,,,0.00,Wunderground v.1.15,2013-03-29 06:44:00,
2013-03-29 01:49:00,64.4,56.3,30.14,SSW,194,5.0,8.0,75,0.00,,,0.00,Wunderground v.1.15,2013-03-29 06:49:00,
2013-03-29 01:55:00,64.4,56.3,30.14,SE,126,6.0,9.0,75,0.00,,,0.00,Wunderground v.1.15,2013-03-29 06:55:00,
2013-03-29 02:00:00,64.3,56.2,30.14,South,181,6.0,6.0,75,0.00,,,0.00,Wunderground v.1.15,2013-03-29 07:00:00,
2013-03-29 02:06:00,64.3,56.2,30.14,South,187,5.0,6.0,75,0.00,,,0.00,Wunderground v.1.15,2013-03-29 07:06:00,
2013-03-29 02:12:00,64.2,56.5,30.14,SSE,155,6.0,8.0,76,0.00,,,0.00,Wunderground v.1.15,2013-03-29 07:12:00,
2013-03-29 02:18:00,64.2,56.5,30.14,SSW,192,5.0,8.0,76,0.00,,,0.00,Wunderground v.1.15,2013-03-29 07:18:00,
2013-03-29 02:23:00,64.2,56.5,30.13,SSE,168,5.0,10.0,76,0.00,,,0.00,Wunderground v.1.15,2013-03-29 07:23:00,
2013-03-29 02:28:00,64.2,56.5,30.13,South,190,6.0,10.0,76,0.00,,,0.00,Wunderground v.1.15,2013-03-29 07:28:00,
2013-03-29 02:34:00,64.1,56.4,30.13,South,188,5.0,7.0,76,0.00,,,0.00,Wunderground v.1.15,2013-03-29 07:34:00,
2013-03-29 02:39:00,64.0,56.3,30.13,SSW,196,5.0,7.0,76,0.00,,,0.00,Wunderground v.1.15,2013-03-29 07:39:00,
2013-03-29 02:45:00,63.9,56.2,30.13,SSW,201,6.0,6.0,76,0.00,,,0.00,Wunderground v.1.15,2013-03-29 07:45:00,
2013-03-29 02:51:00,63.9,56.2,30.13,South,177,6.0,6.0,76,0.00,,,0.00,Wunderground v.1.15,2013-03-29 07:51:00,
2013-03-29 02:56:00,63.8,56.1,30.13,SSW,210,6.0,17.0,76,0.00,,,0.00,Wunderground v.1.15,2013-03-29 07:56:00,
2013-03-29 03:02:00,63.8,56.1,30.13,South,184,5.0,5.0,76,0.00,,,0.00,Wunderground v.1.15,2013-03-29 08:02:00,
2013-03-29 03:08:00,63.6,56.0,30.13,SSW,212,6.0,16.0,77,0.00,,,0.00,weatherlink.com 1.10,2013-03-29 08:08:00,
2013-03-29 03:13:00,63.6,56.3,30.13,South,172,6.0,8.0,77,0.00,,,0.00,Wunderground v.1.15,2013-03-29 08:13:00,
2013-03-29 03:19:00,63.4,56.1,30.13,SSW,203,5.0,8.0,77,0.00,,,0.00,Wunderground v.1.15,2013-03-29 08:19:00,
2013-03-29 03:25:00,63.3,56.0,30.13,SSE,164,5.0,7.0,77,0.00,,,0.00,Wunderground v.1.15,2013-03-29 08:25:00,
2013-03-29 03:30:00,63.2,55.9,30.13,SSE,149,5.0,7.0,77,0.00,,,0.00,Wunderground v.1.15,2013-03-29 08:30:00,
2013-03-29 03:36:00,63.1,55.8,30.13,SSE,150,5.0,9.0,77,0.00,,,0.00,Wunderground v.1.15,2013-03-29 08:36:00,
2013-03-29 03:53:00,62.7,56.0,30.13,SSW,196,2.0,11.0,78,0.00,,,0.00,weatherlink.com 1.10,2013-03-29 08:53:00,
2013-03-29 04:08:00,62.5,56.0,30.13,SSE,156,5.0,13.0,78,0.00,,,0.00,weatherlink.com 1.10,2013-03-29 09:08:00,
2013-03-29 04:23:00,62.2,56.0,30.14,South,175,3.0,10.0,79,0.00,,,0.00,weatherlink.com 1.10,2013-03-29 09:23:00,
2013-03-29 04:38:00,62.0,56.0,30.13,South,171,2.0,11.0,80,0.00,,,0.00,weatherlink.com 1.10,2013-03-29 09:38:00,
2013-03-29 04:53:00,61.9,56.0,30.14,South,191,3.0,12.0,80,0.00,,,0.00,weatherlink.com 1.10,2013-03-29 09:53:00,
2013-03-29 05:08:00,61.7,56.0,30.14,South,186,4.0,12.0,80,0.00,,,0.00,weatherlink.com 1.10,2013-03-29 10:08:00,
2013-03-29 05:23:00,61.6,56.0,30.14,SSW,208,4.0,15.0,81,0.00,,,0.00,weatherlink.com 1.10,2013-03-29 10:23:00,
2013-03-29 05:38:00,61.3,55.0,30.14,South,190,3.0,13.0,81,0.00,,,0.00,weatherlink.com 1.10,2013-03-29 10:38:00,
2013-03-29 05:53:00,61.1,56.0,30.14,SSE,165,3.0,11.0,82,0.00,,,0.00,weatherlink.com 1.10,2013-03-29 10:53:00,
2013-03-29 06:08:00,60.9,55.0,30.14,SSE,166,3.0,12.0,82,0.00,,,0.00,weatherlink.com 1.10,2013-03-29 11:08:00,
2013-03-29 06:23:00,60.8,55.0,30.14,South,172,1.0,8.0,82,0.00,,,0.00,weatherlink.com 1.10,2013-03-29 11:23:00,
2013-03-29 06:38:00,60.7,55.0,30.14,South,175,3.0,9.0,82,0.00,,,0.00,weatherlink.com 1.10,2013-03-29 11:38:00,
2013-03-29 06:53:00,60.5,55.0,30.15,South,169,7.0,9.0,83,0.00,,,0.00,weatherlink.com 1.10,2013-03-29 11:53:00,
2013-03-29 06:59:00,60.5,55.3,30.15,South,180,4.0,4.0,83,0.00,,,0.00,Wunderground v.1.15,2013-03-29 11:59:00,
2013-03-29 07:05:00,60.5,55.3,30.15,SSW,192,3.0,7.0,83,0.00,,,0.00,Wunderground v.1.15,2013-03-29 12:05:00,
2013-03-29 07:10:00,60.5,55.3,30.16,SSW,207,4.0,7.0,83,0.00,,,0.00,Wunderground v.1.15,2013-03-29 12:10:00,
2013-03-29 07:16:00,60.4,55.2,30.16,SSW,192,4.0,7.0,83,0.00,,,0.00,Wunderground v.1.15,2013-03-29 12:16:00,
2013-03-29 07:22:00,60.4,55.2,30.16,SSE,165,4.0,5.0,83,0.00,,,0.00,Wunderground v.1.15,2013-03-29 12:22:00,
2013-03-29 07:26:00,60.4,55.2,30.17,SSE,151,4.0,5.0,83,0.00,,,0.00,Wunderground v.1.15,2013-03-29 12:26:00,
2013-03-29 07:32:00,60.4,55.2,30.17,South,179,3.0,3.0,83,0.00,,,0.00,Wunderground v.1.15,2013-03-29 12:32:00,
2013-03-29 07:37:00,60.3,55.1,30.17,SSE,161,3.0,5.0,83,0.00,,,0.00,Wunderground v.1.15,2013-03-29 12:37:00,
2013-03-29 07:43:00,60.3,55.1,30.17,SSW,211,3.0,5.0,83,0.00,,,0.00,Wunderground v.1.15,2013-03-29 12:43:00,
2013-03-29 07:48:00,60.3,55.1,30.17,SSW,200,3.0,5.0,83,0.00,,,0.00,Wunderground v.1.15,2013-03-29 12:48:00,
2013-03-29 07:54:00,60.4,55.0,30.18,SSW,204,3.0,6.0,83,0.00,,,0.00,weatherlink.com 1.10,2013-03-29 12:54:00,
2013-03-29 07:59:00,60.3,55.1,30.18,South,184,3.0,10.0,83,0.00,,,0.00,Wunderground v.1.15,2013-03-29 12:59:00,
2013-03-29 08:05:00,60.3,55.1,30.18,SE,140,3.0,5.0,83,0.00,,,0.00,Wunderground v.1.15,2013-03-29 13:05:00,
2013-03-29 08:10:00,60.3,55.0,30.18,SSW,209,3.0,9.0,83,0.00,,,0.00,weatherlink.com 1.10,2013-03-29 13:10:00,
2013-03-29 08:16:00,60.3,55.1,30.18,East,100,2.0,3.0,83,0.00,,,0.00,Wunderground v.1.15,2013-03-29 13:16:00,
2013-03-29 08:22:00,60.4,55.2,30.18,SSE,159,3.0,3.0,83,0.00,,,0.00,Wunderground v.1.15,2013-03-29 13:22:00,
2013-03-29 08:28:00,60.4,55.2,30.19,South,173,3.0,5.0,83,0.00,,,0.00,Wunderground v.1.15,2013-03-29 13:28:00,
2013-03-29 08:33:00,60.5,55.3,30.19,SE,140,2.0,3.0,83,0.00,,,0.00,Wunderground v.1.15,2013-03-29 13:33:00,
2013-03-29 08:39:00,60.6,55.0,30.19,South,172,2.0,6.0,83,0.00,,,0.00,weatherlink.com 1.10,2013-03-29 13:39:00,
2013-03-29 08:44:00,60.7,55.5,30.19,SSW,194,2.0,2.0,83,0.00,,,0.00,Wunderground v.1.15,2013-03-29 13:44:00,
2013-03-29 08:50:00,60.7,55.5,30.19,SSW,199,2.0,3.0,83,0.00,,,0.00,Wunderground v.1.15,2013-03-29 13:50:00,
2013-03-29 08:56:00,60.8,55.6,30.19,South,170,2.0,9.0,83,0.00,,,0.00,Wunderground v.1.15,2013-03-29 13:56:00,
2013-03-29 09:00:00,60.8,55.6,30.19,South,175,2.0,5.0,83,0.00,,,0.00,Wunderground v.1.15,2013-03-29 14:00:00,
2013-03-29 09:06:00,60.8,55.6,30.19,SSE,165,3.0,6.0,83,0.00,,,0.00,Wunderground v.1.15,2013-03-29 14:06:00,
2013-03-29 09:12:00,60.9,55.7,30.19,South,190,3.0,6.0,83,0.00,,,0.00,Wunderground v.1.15,2013-03-29 14:12:00,
2013-03-29 09:17:00,61.0,55.8,30.19,South,180,2.0,6.0,83,0.00,,,0.00,Wunderground v.1.15,2013-03-29 14:17:00,
2013-03-29 09:22:00,61.1,55.9,30.19,South,169,2.0,2.0,83,0.00,,,0.00,Wunderground v.1.15,2013-03-29 14:22:00,
2013-03-29 09:28:00,61.1,55.9,30.19,South,177,1.0,4.0,83,0.00,,,0.00,Wunderground v.1.15,2013-03-29 14:28:00,
2013-03-29 09:33:00,61.2,56.0,30.19,South,173,1.0,2.0,83,0.00,,,0.00,Wunderground v.1.15,2013-03-29 14:33:00,
2013-03-29 09:38:00,61.3,56.1,30.19,South,187,1.0,2.0,83,0.00,,,0.00,Wunderground v.1.15,2013-03-29 14:38:00,
2013-03-29 09:44:00,61.3,56.1,30.19,South,178,1.0,5.0,83,0.00,,,0.00,Wunderground v.1.15,2013-03-29 14:44:00,
2013-03-29 09:50:00,61.4,56.2,30.18,South,182,2.0,3.0,83,0.00,,,0.00,Wunderground v.1.15,2013-03-29 14:50:00,
2013-03-29 09:56:00,61.8,56.2,30.18,South,171,2.0,6.0,82,0.00,,,0.00,Wunderground v.1.15,2013-03-29 14:56:00,
2013-03-29 10:01:00,62.4,56.8,30.18,SSW,193,2.0,2.0,82,0.00,,,0.00,Wunderground v.1.15,2013-03-29 15:01:00,
2013-03-29 10:06:00,62.7,56.8,30.18,SSW,193,2.0,2.0,81,0.00,,,0.00,Wunderground v.1.15,2013-03-29 15:06:00,
2013-03-29 10:12:00,63.2,56.9,30.18,SSW,211,1.0,4.0,80,0.00,,,0.00,Wunderground v.1.15,2013-03-29 15:12:00,
2013-03-29 10:17:00,63.3,57.0,30.18,SSW,202,1.0,4.0,80,0.00,,,0.00,Wunderground v.1.15,2013-03-29 15:17:00,
2013-03-29 10:22:00,63.3,56.7,30.18,South,176,1.0,4.0,79,0.00,,,0.00,Wunderground v.1.15,2013-03-29 15:22:00,
2013-03-29 10:28:00,63.4,56.8,30.18,South,188,2.0,4.0,79,0.00,,,0.00,Wunderground v.1.15,2013-03-29 15:28:00,
2013-03-29 10:34:00,63.5,56.9,30.18,South,187,1.0,3.0,79,0.00,,,0.00,Wunderground v.1.15,2013-03-29 15:34:00,
2013-03-29 10:40:00,64.0,57.4,30.18,SSW,205,2.0,2.0,79,0.00,,,0.00,Wunderground v.1.15,2013-03-29 15:40:00,
2013-03-29 10:45:00,64.4,57.4,30.18,SSE,167,2.0,5.0,78,0.00,,,0.00,Wunderground v.1.15,2013-03-29 15:45:00,
2013-03-29 10:51:00,64.5,57.5,30.18,SSW,196,2.0,3.0,78,0.00,,,0.00,Wunderground v.1.15,2013-03-29 15:51:00,
2013-03-29 10:56:00,65.0,58.0,30.17,SSW,198,2.0,5.0,78,0.00,,,0.00,Wunderground v.1.15,2013-03-29 15:56:00,
2013-03-29 11:02:00,65.5,57.7,30.17,South,172,3.0,5.0,76,0.00,,,0.00,Wunderground v.1.15,2013-03-29 16:02:00,
2013-03-29 11:08:00,66.2,58.0,30.17,WSW,248,3.0,6.0,75,0.00,,,0.00,Wunderground v.1.15,2013-03-29 16:08:00,
2013-03-29 11:14:00,66.9,58.0,30.17,SSW,209,3.0,3.0,73,0.00,,,0.00,Wunderground v.1.15,2013-03-29 16:14:00,
2013-03-29 11:20:00,67.0,58.4,30.17,South,170,3.0,5.0,74,0.00,,,0.00,Wunderground v.1.15,2013-03-29 16:20:00,
2013-03-29 11:25:00,67.6,58.6,30.17,South,190,2.0,5.0,73,0.00,,,0.00,Wunderground v.1.15,2013-03-29 16:25:00,
2013-03-29 11:30:00,67.9,58.5,30.17,South,178,2.0,2.0,72,0.00,,,0.00,Wunderground v.1.15,2013-03-29 16:30:00,
2013-03-29 11:36:00,67.5,58.2,30.17,SW,219,2.0,5.0,72,0.00,,,0.00,Wunderground v.1.15,2013-03-29 16:36:00,
2013-03-29 11:42:00,67.6,58.6,30.17,SSE,164,3.0,6.0,73,0.00,,,0.00,Wunderground v.1.15,2013-03-29 16:42:00,
2013-03-29 11:48:00,67.3,58.0,30.17,SSE,155,3.0,6.0,72,0.00,,,0.00,Wunderground v.1.15,2013-03-29 16:48:00,
2013-03-29 11:53:00,68.1,58.3,30.16,SW,217,3.0,7.0,71,0.00,,,0.00,Wunderground v.1.15,2013-03-29 16:53:00,
2013-03-29 11:59:00,68.8,58.6,30.16,SW,219,3.0,7.0,70,0.00,,,0.00,Wunderground v.1.15,2013-03-29 16:59:00,
2013-03-29 12:04:00,69.0,58.4,30.16,SSW,197,4.0,4.0,69,0.00,,,0.00,Wunderground v.1.15,2013-03-29 17:04:00,
2013-03-29 12:10:00,69.4,59.0,30.16,SSE,153,8.0,11.0,69,0.00,,,0.00,weatherlink.com 1.10,2013-03-29 17:10:00,
2013-03-29 12:15:00,69.6,58.6,30.16,SSW,213,4.0,5.0,68,0.00,,,0.00,Wunderground v.1.15,2013-03-29 17:15:00,
2013-03-29 12:20:00,69.6,58.6,30.16,South,182,3.0,8.0,68,0.00,,,0.00,Wunderground v.1.15,2013-03-29 17:20:00,
2013-03-29 12:25:00,70.3,59.0,30.16,SSE,159,4.0,9.0,67,0.00,,,0.00,weatherlink.com 1.10,2013-03-29 17:25:00,
2013-03-29 12:30:00,70.5,58.2,30.15,South,181,4.0,4.0,65,0.00,,,0.00,Wunderground v.1.15,2013-03-29 17:30:00,
2013-03-29 12:35:00,70.1,59.0,30.15,South,170,4.0,4.0,68,0.00,,,0.00,Wunderground v.1.15,2013-03-29 17:35:00,
2013-03-29 12:40:00,70.3,58.8,30.15,SSW,211,4.0,4.0,67,0.00,,,0.00,Wunderground v.1.15,2013-03-29 17:40:00,
2013-03-29 12:46:00,70.8,59.3,30.15,South,182,4.0,8.0,67,0.00,,,0.00,Wunderground v.1.15,2013-03-29 17:46:00,
2013-03-29 12:52:00,71.2,58.8,30.15,SSE,148,4.0,5.0,65,0.00,,,0.00,Wunderground v.1.15,2013-03-29 17:52:00,
2013-03-29 12:58:00,71.9,59.1,30.14,South,184,4.0,9.0,64,0.00,,,0.00,Wunderground v.1.15,2013-03-29 17:58:00,
2013-03-29 13:03:00,72.6,59.3,30.14,SW,221,3.0,5.0,63,0.00,,,0.00,Wunderground v.1.15,2013-03-29 18:03:00,
2013-03-29 13:08:00,72.9,59.1,30.14,SSW,207,3.0,5.0,62,0.00,,,0.00,Wunderground v.1.15,2013-03-29 18:08:00,
2013-03-29 13:14:00,73.8,59.5,30.14,SE,146,2.0,5.0,61,0.00,,,0.00,Wunderground v.1.15,2013-03-29 18:14:00,
2013-03-29 13:19:00,73.3,59.5,30.14,South,178,3.0,5.0,62,0.00,,,0.00,Wunderground v.1.15,2013-03-29 18:19:00,
2013-03-29 13:24:00,73.7,59.4,30.13,East,100,3.0,4.0,61,0.00,,,0.00,Wunderground v.1.15,2013-03-29 18:24:00,
2013-03-29 13:30:00,73.8,59.0,30.13,SSW,192,3.0,4.0,60,0.00,,,0.00,Wunderground v.1.15,2013-03-29 18:30:00,
2013-03-29 13:35:00,73.9,59.1,30.12,SSW,194,4.0,4.0,60,0.00,,,0.00,Wunderground v.1.15,2013-03-29 18:35:00,
2013-03-29 13:40:00,74.5,59.0,30.12,SSW,202,4.0,9.0,59,0.00,,,0.00,weatherlink.com 1.10,2013-03-29 18:40:00,
2013-03-29 13:46:00,74.5,60.2,30.12,South,188,3.0,6.0,61,0.00,,,0.00,Wunderground v.1.15,2013-03-29 18:46:00,
2013-03-29 13:51:00,74.5,58.8,30.11,SSW,213,3.0,8.0,58,0.00,,,0.00,Wunderground v.1.15,2013-03-29 18:51:00,
2013-03-29 13:57:00,74.5,58.8,30.11,SSW,196,4.0,10.0,58,0.00,,,0.00,Wunderground v.1.15,2013-03-29 18:57:00,
2013-03-29 14:02:00,75.4,59.6,30.11,SW,224,4.0,7.0,58,0.00,,,0.00,Wunderground v.1.15,2013-03-29 19:02:00,
2013-03-29 14:07:00,74.7,58.5,30.11,SW,216,4.0,7.0,57,0.00,,,0.00,Wunderground v.1.15,2013-03-29 19:07:00,
2013-03-29 14:13:00,74.3,58.6,30.11,SSW,194,4.0,6.0,58,0.00,,,0.00,Wunderground v.1.15,2013-03-29 19:13:00,
2013-03-29 14:19:00,74.8,59.5,30.10,SSW,198,4.0,6.0,59,0.00,,,0.00,Wunderground v.1.15,2013-03-29 19:19:00,
2013-03-29 14:24:00,75.7,59.9,30.10,SSE,164,4.0,6.0,58,0.00,,,0.00,Wunderground v.1.15,2013-03-29 19:24:00,
2013-03-29 14:29:00,76.1,59.3,30.10,South,179,4.0,6.0,56,0.00,,,0.00,Wunderground v.1.15,2013-03-29 19:29:00,
2013-03-29 14:34:00,75.8,59.5,30.10,SW,219,3.0,5.0,57,0.00,,,0.00,Wunderground v.1.15,2013-03-29 19:34:00,
2013-03-29 14:39:00,76.2,59.4,30.10,South,183,3.0,7.0,56,0.00,,,0.00,Wunderground v.1.15,2013-03-29 19:39:00,
2013-03-29 14:45:00,76.2,59.4,30.09,South,173,4.0,6.0,56,0.00,,,0.00,Wunderground v.1.15,2013-03-29 19:45:00,
2013-03-29 14:50:00,75.8,58.5,30.09,SSW,192,4.0,7.0,55,0.00,,,0.00,Wunderground v.1.15,2013-03-29 19:50:00,
2013-03-29 14:56:00,76.1,59.0,30.09,SSW,209,4.0,10.0,56,0.00,,,0.00,weatherlink.com 1.10,2013-03-29 19:56:00,
2013-03-29 15:02:00,76.6,58.7,30.09,SSW,201,4.0,7.0,54,0.00,,,0.00,Wunderground v.1.15,2013-03-29 20:02:00,
2013-03-29 15:08:00,76.0,59.2,30.09,South,188,4.0,10.0,56,0.00,,,0.00,Wunderground v.1.15,2013-03-29 20:08:00,
2013-03-29 15:13:00,76.4,59.0,30.09,SW,221,2.0,6.0,55,0.00,,,0.00,weatherlink.com 1.10,2013-03-29 20:13:00,
2013-03-29 15:18:00,76.8,58.9,30.09,SSW,196,3.0,6.0,54,0.00,,,0.00,Wunderground v.1.15,2013-03-29 20:18:00,
2013-03-29 15:24:00,76.7,58.3,30.09,SSW,197,3.0,4.0,53,0.00,,,0.00,Wunderground v.1.15,2013-03-29 20:24:00,
2013-03-29 15:30:00,76.0,58.7,30.08,SSW,207,3.0,3.0,55,0.00,,,0.00,Wunderground v.1.15,2013-03-29 20:30:00,
2013-03-29 15:35:00,75.1,57.8,30.08,SSW,196,3.0,5.0,55,0.00,,,0.00,Wunderground v.1.15,2013-03-29 20:35:00,
2013-03-29 15:41:00,74.3,57.0,30.08,South,176,3.0,12.0,56,0.00,,,0.00,weatherlink.com 1.10,2013-03-29 20:41:00,
2013-03-29 15:46:00,74.4,57.7,30.08,South,174,3.0,4.0,56,0.00,,,0.00,Wunderground v.1.15,2013-03-29 20:46:00,
2013-03-29 15:51:00,74.2,57.5,30.08,SSE,165,3.0,3.0,56,0.00,,,0.00,Wunderground v.1.15,2013-03-29 20:51:00,
2013-03-29 15:56:00,73.6,58.0,30.08,SSW,198,4.0,7.0,58,0.00,,,0.00,weatherlink.com 1.10,2013-03-29 20:56:00,
2013-03-29 16:01:00,73.7,58.5,30.08,SSW,207,4.0,4.0,59,0.00,,,0.00,Wunderground v.1.15,2013-03-29 21:01:00,
2013-03-29 16:07:00,73.8,58.1,30.08,SSW,200,4.0,10.0,58,0.00,,,0.00,Wunderground v.1.15,2013-03-29 21:07:00,
2013-03-29 16:13:00,73.9,57.7,30.08,South,171,5.0,10.0,57,0.00,,,0.00,Wunderground v.1.15,2013-03-29 21:13:00,
2013-03-29 16:19:00,74.0,57.8,30.08,SSW,198,5.0,10.0,57,0.00,,,0.00,Wunderground v.1.15,2013-03-29 21:19:00,
2013-03-29 16:24:00,73.9,57.7,30.08,South,170,5.0,11.0,57,0.00,,,0.00,Wunderground v.1.15,2013-03-29 21:24:00,
2013-03-29 16:30:00,73.9,58.2,30.08,South,180,5.0,5.0,58,0.00,,,0.00,Wunderground v.1.15,2013-03-29 21:30:00,
2013-03-29 16:35:00,73.5,57.8,30.08,SSW,197,5.0,8.0,58,0.00,,,0.00,Wunderground v.1.15,2013-03-29 21:35:00,
2013-03-29 16:41:00,73.2,57.0,30.07,SSE,157,5.0,11.0,58,0.00,,,0.00,weatherlink.com 1.10,2013-03-29 21:41:00,
2013-03-29 16:46:00,73.0,57.8,30.07,SSE,152,5.0,7.0,59,0.00,,,0.00,Wunderground v.1.15,2013-03-29 21:46:00,
2013-03-29 16:52:00,73.0,57.8,30.07,SSW,209,5.0,7.0,59,0.00,,,0.00,Wunderground v.1.15,2013-03-29 21:52:00,
2013-03-29 16:58:00,73.0,57.3,30.07,SW,221,6.0,14.0,58,0.00,,,0.00,Wunderground v.1.15,2013-03-29 21:58:00,
2013-03-29 17:03:00,73.0,57.8,30.07,SSE,162,6.0,10.0,59,0.00,,,0.00,Wunderground v.1.15,2013-03-29 22:03:00,
2013-03-29 17:08:00,73.1,57.9,30.07,SSW,196,5.0,10.0,59,0.00,,,0.00,Wunderground v.1.15,2013-03-29 22:08:00,
2013-03-29 17:13:00,72.9,57.3,30.07,SSE,154,5.0,5.0,58,0.00,,,0.00,Wunderground v.1.15,2013-03-29 22:13:00,
2013-03-29 17:19:00,72.7,57.5,30.08,South,175,4.0,10.0,59,0.00,,,0.00,Wunderground v.1.15,2013-03-29 22:19:00,
2013-03-29 17:25:00,72.6,57.4,30.08,SSW,194,5.0,11.0,59,0.00,,,0.00,Wunderground v.1.15,2013-03-29 22:25:00,
2013-03-29 17:31:00,72.5,57.4,30.08,South,182,4.0,5.0,59,0.00,,,0.00,Wunderground v.1.15,2013-03-29 22:31:00,
2013-03-29 17:36:00,72.4,57.3,30.08,South,181,4.0,6.0,59,0.00,,,0.00,Wunderground v.1.15,2013-03-29 22:36:00,
2013-03-29 17:42:00,72.2,57.5,30.08,SSE,166,4.0,8.0,60,0.00,,,0.00,Wunderground v.1.15,2013-03-29 22:42:00,
2013-03-29 17:48:00,72.1,57.4,30.08,SSW,199,4.0,9.0,60,0.00,,,0.00,Wunderground v.1.15,2013-03-29 22:48:00,
2013-03-29 17:53:00,72.0,57.8,30.07,SSE,163,4.0,5.0,61,0.00,,,0.00,Wunderground v.1.15,2013-03-29 22:53:00,
2013-03-29 17:59:00,72.0,57.4,30.08,South,169,4.0,14.0,60,0.00,,,0.00,Wunderground v.1.15,2013-03-29 22:59:00,
2013-03-29 18:05:00,72.0,57.8,30.07,SSE,168,4.0,7.0,61,0.00,,,0.00,Wunderground v.1.15,2013-03-29 23:05:00,
2013-03-29 18:10:00,72.0,57.8,30.07,ESE,113,4.0,4.0,61,0.00,,,0.00,Wunderground v.1.15,2013-03-29 23:10:00,
2013-03-29 18:16:00,72.0,57.8,30.07,SE,146,4.0,7.0,61,0.00,,,0.00,Wunderground v.1.15,2013-03-29 23:16:00,
2013-03-29 18:22:00,72.0,57.8,30.07,SE,128,4.0,9.0,61,0.00,,,0.00,Wunderground v.1.15,2013-03-29 23:22:00,
2013-03-29 18:27:00,72.0,57.4,30.07,South,188,5.0,9.0,60,0.00,,,0.00,Wunderground v.1.15,2013-03-29 23:27:00,
2013-03-29 18:33:00,72.0,57.8,30.07,South,178,5.0,6.0,61,0.00,,,0.00,Wunderground v.1.15,2013-03-29 23:33:00,
2013-03-29 18:38:00,72.0,57.4,30.07,South,179,5.0,6.0,60,0.00,,,0.00,Wunderground v.1.15,2013-03-29 23:38:00,
2013-03-29 18:44:00,71.9,57.7,30.07,SSE,149,5.0,9.0,61,0.00,,,0.00,Wunderground v.1.15,2013-03-29 23:44:00,
2013-03-29 18:49:00,71.7,57.5,30.07,South,169,5.0,9.0,61,0.00,,,0.00,Wunderground v.1.15,2013-03-29 23:49:00,
2013-03-29 18:55:00,71.5,57.3,30.06,South,175,6.0,7.0,61,0.00,,,0.00,Wunderground v.1.15,2013-03-29 23:55:00,
2013-03-29 19:00:00,71.4,57.2,30.06,SE,137,6.0,6.0,61,0.00,,,0.00,Wunderground v.1.15,2013-03-30 00:00:00,
2013-03-29 19:05:00,71.3,57.2,30.06,SSE,161,6.0,8.0,61,0.00,,,0.00,Wunderground v.1.15,2013-03-30 00:05:00,
2013-03-29 19:10:00,71.2,57.1,30.06,SSW,198,5.0,9.0,61,0.00,,,0.00,Wunderground v.1.15,2013-03-30 00:10:00,
2013-03-29 19:15:00,71.1,57.0,30.06,SSE,151,5.0,10.0,61,0.00,,,0.00,Wunderground v.1.15,2013-03-30 00:15:00,
2013-03-29 19:21:00,70.9,57.2,30.06,South,172,5.0,10.0,62,0.00,,,0.00,Wunderground v.1.15,2013-03-30 00:21:00,
2013-03-29 19:26:00,70.7,57.0,30.06,SSE,163,6.0,12.0,62,0.00,,,0.00,Wunderground v.1.15,2013-03-30 00:26:00,
2013-03-29 19:32:00,70.5,56.9,30.06,SSE,153,5.0,6.0,62,0.00,,,0.00,Wunderground v.1.15,2013-03-30 00:32:00,
2013-03-29 19:38:00,70.3,57.1,30.06,SSW,204,5.0,7.0,63,0.00,,,0.00,Wunderground v.1.15,2013-03-30 00:38:00,
2013-03-29 19:43:00,70.3,57.1,30.07,SE,132,5.0,11.0,63,0.00,,,0.00,Wunderground v.1.15,2013-03-30 00:43:00,
2013-03-29 19:49:00,70.2,57.0,30.07,ESE,118,5.0,11.0,63,0.00,,,0.00,Wunderground v.1.15,2013-03-30 00:49:00,
2013-03-29 19:54:00,70.1,56.9,30.07,ESE,121,4.0,9.0,63,0.00,,,0.00,Wunderground v.1.15,2013-03-30 00:54:00,
2013-03-29 20:00:00,70.0,56.8,30.07,SE,128,4.0,4.0,63,0.00,,,0.00,Wunderground v.1.15,2013-03-30 01:00:00,
2013-03-29 20:06:00,69.9,56.7,30.07,South,180,4.0,7.0,63,0.00,,,0.00,Wunderground v.1.15,2013-03-30 01:06:00,
2013-03-29 20:11:00,69.9,56.7,30.08,SE,144,5.0,5.0,63,0.00,,,0.00,Wunderground v.1.15,2013-03-30 01:11:00,
2013-03-29 20:16:00,69.8,57.1,30.08,SSE,166,4.0,6.0,64,0.00,,,0.00,Wunderground v.1.15,2013-03-30 01:16:00,
2013-03-29 20:22:00,69.7,57.0,30.07,SSE,160,4.0,5.0,64,0.00,,,0.00,Wunderground v.1.15,2013-03-30 01:22:00,
2013-03-29 20:27:00,69.7,57.0,30.07,SE,136,4.0,6.0,64,0.00,,,0.00,Wunderground v.1.15,2013-03-30 01:27:00,
2013-03-29 20:32:00,69.6,56.9,30.07,South,179,4.0,4.0,64,0.00,,,0.00,Wunderground v.1.15,2013-03-30 01:32:00,
2013-03-29 20:38:00,69.6,57.3,30.08,South,170,4.0,8.0,65,0.00,,,0.00,Wunderground v.1.15,2013-03-30 01:38:00,
2013-03-29 20:44:00,69.5,57.0,30.07,SSE,167,5.0,12.0,65,0.00,,,0.00,weatherlink.com 1.10,2013-03-30 01:44:00,
2013-03-29 20:50:00,69.4,57.1,30.07,South,182,4.0,4.0,65,0.00,,,0.00,Wunderground v.1.15,2013-03-30 01:50:00,
2013-03-29 20:56:00,69.3,57.0,30.08,SE,138,4.0,6.0,65,0.00,,,0.00,Wunderground v.1.15,2013-03-30 01:56:00,
2013-03-29 21:01:00,69.3,57.5,30.07,ESE,114,4.0,4.0,66,0.00,,,0.00,Wunderground v.1.15,2013-03-30 02:01:00,
2013-03-29 21:07:00,69.1,57.3,30.08,South,173,4.0,6.0,66,0.00,,,0.00,Wunderground v.1.15,2013-03-30 02:07:00,
2013-03-29 21:13:00,69.0,57.2,30.08,SE,144,4.0,8.0,66,0.00,,,0.00,Wunderground v.1.15,2013-03-30 02:13:00,
2013-03-29 21:19:00,68.9,57.5,30.08,South,170,4.0,8.0,67,0.00,,,0.00,Wunderground v.1.15,2013-03-30 02:19:00,
2013-03-29 21:24:00,68.8,57.4,30.08,SE,143,3.0,6.0,67,0.00,,,0.00,Wunderground v.1.15,2013-03-30 02:24:00,
2013-03-29 21:29:00,68.7,57.3,30.08,SSE,157,4.0,4.0,67,0.00,,,0.00,Wunderground v.1.15,2013-03-30 02:29:00,
2013-03-29 21:34:00,68.6,57.6,30.08,SE,143,4.0,5.0,68,0.00,,,0.00,Wunderground v.1.15,2013-03-30 02:34:00,
2013-03-29 21:40:00,68.5,57.5,30.08,SSE,167,5.0,9.0,68,0.00,,,0.00,Wunderground v.1.15,2013-03-30 02:40:00,
2013-03-29 21:46:00,68.4,57.4,30.08,ESE,119,5.0,9.0,68,0.00,,,0.00,Wunderground v.1.15,2013-03-30 02:46:00,
2013-03-29 21:51:00,68.4,57.4,30.09,SSE,166,5.0,5.0,68,0.00,,,0.00,Wunderground v.1.15,2013-03-30 02:51:00,
2013-03-29 21:57:00,68.4,57.8,30.09,SSE,165,3.0,12.0,69,0.00,,,0.00,Wunderground v.1.15,2013-03-30 02:57:00,
2013-03-29 22:02:00,68.3,57.7,30.09,SSE,156,3.0,4.0,69,0.00,,,0.00,Wunderground v.1.15,2013-03-30 03:02:00,
2013-03-29 22:07:00,68.3,57.7,30.08,South,173,4.0,6.0,69,0.00,,,0.00,Wunderground v.1.15,2013-03-30 03:07:00,
2013-03-29 22:12:00,68.2,57.6,30.08,SE,125,4.0,5.0,69,0.00,,,0.00,Wunderground v.1.15,2013-03-30 03:12:00,
2013-03-29 22:17:00,68.3,57.7,30.08,SSE,158,4.0,5.0,69,0.00,,,0.00,Wunderground v.1.15,2013-03-30 03:17:00,
2013-03-29 22:23:00,68.3,57.7,30.08,SSE,162,4.0,8.0,69,0.00,,,0.00,Wunderground v.1.15,2013-03-30 03:23:00,
2013-03-29 22:29:00,68.3,57.7,30.08,SE,132,4.0,8.0,69,0.00,,,0.00,Wunderground v.1.15,2013-03-30 03:29:00,
2013-03-29 22:35:00,68.3,57.7,30.08,ESE,114,4.0,9.0,69,0.00,,,0.00,Wunderground v.1.15,2013-03-30 03:35:00,
2013-03-29 22:42:00,68.2,57.6,30.08,South,171,5.0,8.0,69,0.00,,,0.00,Wunderground v.1.15,2013-03-30 03:42:00,
2013-03-29 22:48:00,68.1,57.5,30.08,SSE,154,4.0,8.0,69,0.00,,,0.00,Wunderground v.1.15,2013-03-30 03:48:00,
2013-03-29 22:54:00,68.1,57.5,30.07,South,182,4.0,7.0,69,0.00,,,0.00,Wunderground v.1.15,2013-03-30 03:54:00,
2013-03-29 23:00:00,67.9,57.8,30.07,SSE,163,4.0,7.0,70,0.00,,,0.00,Wunderground v.1.15,2013-03-30 04:00:00,
2013-03-29 23:01:00,67.9,57.8,30.07,SSW,206,4.0,7.0,70,0.00,,,0.00,Wunderground v.1.15,2013-03-30 04:01:00,
2013-03-29 23:03:00,67.9,57.8,30.07,SE,129,4.0,8.0,70,0.00,,,0.00,Wunderground v.1.15,2013-03-30 04:03:00,
2013-03-29 23:07:00,67.8,57.7,30.07,SE,142,5.0,8.0,70,0.00,,,0.00,Wunderground v.1.15,2013-03-30 04:07:00,
2013-03-29 23:13:00,67.7,58.0,30.06,South,186,3.0,12.0,70,0.00,,,0.00,weatherlink.com 1.10,2013-03-30 04:13:00,
2013-03-29 23:19:00,67.7,57.6,30.06,South,174,5.0,7.0,70,0.00,,,0.00,Wunderground v.1.15,2013-03-30 04:19:00,
2013-03-29 23:24:00,67.6,57.5,30.05,SE,146,5.0,7.0,70,0.00,,,0.00,Wunderground v.1.15,2013-03-30 04:24:00,
2013-03-29 23:29:00,67.5,57.4,30.05,SSE,150,4.0,7.0,70,0.00,,,0.00,Wunderground v.1.15,2013-03-30 04:29:00,
2013-03-29 23:34:00,67.5,57.8,30.04,East,96,5.0,9.0,71,0.00,,,0.00,Wunderground v.1.15,2013-03-30 04:34:00,
2013-03-29 23:40:00,67.4,58.1,30.03,ESE,104,5.0,7.0,72,0.00,,,0.00,Wunderground v.1.15,2013-03-30 04:40:00,
2013-03-29 23:45:00,67.1,57.8,30.04,SSW,199,5.0,7.0,72,0.00,,,0.00,Wunderground v.1.15,2013-03-30 04:45:00,
2013-03-29 23:50:00,66.9,58.0,30.03,South,180,5.0,9.0,73,0.00,,,0.00,Wunderground v.1.15,2013-03-30 04:50:00,
2013-03-29 23:56:00,66.7,57.8,30.03,SSE,167,5.0,9.0,73,0.00,,,0.00,Wunderground v.1.15,2013-03-30 04:56:00,